STARLINK-35387, 65909

Orbit data source: Space-Track

STARLINK-35387, 65909 is a payload satellite owned by SpaceX/Seattle (US) in LEO that was launched on Tue, 07 Oct 2025 UTC via an FALCON 9 launch vehicle from the Air Force Eastern Test Range (AFETR). Payload-class satellites include a variety of spacecraft equipped with specific instruments for various scientific and technological missions. These include communications satellites like Starlink; space stations such as the ISS; scientific satellites like the Hubble; Earth observation satellites from companies like Planet Labs, Umbra, and HawkEye 360; GPS; miniature CubeSats for education and research; and military/defense satellites.

Loading next visibility...
Identifier
65909, 2025-224AD
Orbit
LEO
Country
Flag of USUS
Related business
Manufacturer
SpaceX/Seattle
Mission
Operational spacecraft
Bus & Motor
STARLINK V2MO, Unknown motor
Mass
575 kg wet, ~530 kg dry
Launch date (UTC)
2025-10-07 (2 months ago)
Launch vehicle
FALCON 9
Launch site
Air Force Eastern Test Range (AFETR)
Object type
Payload
Rocket body
Debris
Shape & HBR
Unknown shape, 17.7 m
Radar Cross Section
RCS unknown

Expand to show TLE details & history
Last TLE update: 20 hours ago

TLE from 20 hours ago
0 STARLINK-35387
1 65909U 25224AD  25340.57541129  .00043674  00000-0  14779-2 0  9996
2 65909  53.1614  84.1601 0000839 115.2596 244.8491 15.30203690 10563
Epoch: 2025-12-06T13:48Z
TLE epoch observation values (Epoch: 2025-12-06T13:48:35.535Z)
Latitude
-0.00008°
Longitude
161.4108°
Altitude
476.348 km
Speed
7.629 km/s
True Right ascension
05h 36m 38s
True Declination
0° 00' 00"
Sunlit
Object was in full shadow at epoch
Visualization orbit readout
Latitude
Unknown
Longitude
Unknown
Altitude
Unknown
Speed
Unknown
Apparent Right ascension
Unknown
Apparent Declination
Unknown
Sunlit
N/A
Visualization observer readout
Local Sidereal Time
07:36:47
Azimuth
Unknown
Elevation
Unknown
Doppler factor
Unknown
Orbital elements
Apogee altitude
476.035 km
Perigee altitude
474.885 km
Semi-major axis
6,853.597 km
Eccentricity
0.00008
Inclination
53.1614°
RAAN
84.1601°
Arg. of periapsis
115.2596°
True anomaly
244.8404°
Mean anomaly
244.8491°
Eccentric anomaly
244.84475°
Mean motion
3.8253 °/min
Orbital period
94.11 mins
BSTAR
0.0014779
Loading maneuver chart data...
Computing Atmospheric mass density...
Loading historical data...
Loading historical data...
Loading historical data...
Loading historical data...
Loading historical data...
Loading historical data...
Loading historical data...

Documentation

Showing up to 5 results
|